Theta_e
317 317 317 317 317 317 317 317 316 315 314 314 317 315 315 313 313 314 316 317 317 317 316 316 316 317 317 317 317 318 313 314 313 311 313 311 311 311 310 310 310 311 310 310 309
315 316 316 316 316 316 316 316 316 315 314 314 314 316 315 315 314 314 317 316 316 316 316 318 318 316 317 317 316 312 312 314 311 309 312 311 311 311 310 308 308 310 310 309 308
311 312 313 314 314 315 315 314 315 315 314 313 314 315 316 316 317 315 317 315 315 315 317 319 319 315 315 316 314 311 311 313 313 313 313 312 311 311 309 307 311 313 312 309 308
309 309 310 310 311 312 312 312 312 313 313 313 313 314 316 317 316 315 316 315 314 315 316 319 319 317 313 313 314 314 312 313 314 314 313 312 311 309 309 313 313 312 311 310 308
312 312 311 311 310 310 311 311 311 311 311 312 312 313 316 316 317 315 314 314 313 313 315 318 318 316 315 312 313 313 312 314 314 314 314 312 311 310 309 312 312 311 311 309 308
313 313 313 313 313 313 312 311 311 311 311 311 311 313 314 315 316 317 314 314 314 313 314 317 317 316 314 314 313 312 313 313 313 313 313 311 310 310 311 313 312 310 310 309 308
312 313 313 313 313 313 313 312 311 311 310 310 311 313 314 314 315 317 316 314 312 313 314 315 316 315 314 310 312 311 312 309 309 310 310 311 309 307 312 311 310 310 309 307 307
312 312 312 312 313 312 312 311 311 311 310 310 311 314 314 315 317 317 316 312 312 312 314 314 316 315 313 312 310 311 309 312 311 309 310 310 313 310 311 310 310 309 308 307 307
312 312 312 312 312 311 311 310 310 310 310 311 312 314 315 315 316 317 316 311 311 312 313 314 315 313 312 310 312 309 315 312 311 308 309 308 311 309 310 307 307 308 307 306 305
312 312 312 312 311 310 309 308 309 310 311 314 314 316 314 315 317 317 316 310 311 312 313 315 313 309 307 311 312 312 313 310 310 309 307 308 308 309 309 308 307 306 306 304 305
311 311 311 310 308 307 307 307 310 310 314 314 313 315 313 315 315 315 315 312 311 312 311 312 312 312 310 309 312 312 311 311 308 306 307 307 308 309 310 307 304 304 303 304 306
307 308 309 309 306 305 306 307 309 310 310 311 312 313 315 314 314 315 314 313 312 310 310 311 312 310 310 308 309 309 310 309 306 305 305 305 307 307 307 308 309 306 304 304 304
305 305 306 306 304 304 306 307 309 312 311 312 312 311 311 311 312 313 313 313 310 308 308 310 311 308 310 308 309 307 308 308 309 304 303 302 305 303 304 305 307 306 306 306 306
307 306 305 305 304 306 308 310 312 312 302 304 308 311 312 312 311 312 312 311 309 308 307 310 309 310 309 309 307 311 306 307 307 306 308 304 311 306 306 306 305 306 306 308 307
311 309 307 305 306 307 309 312 311 311 303 305 308 310 314 311 309 309 309 309 308 308 309 311 307 308 309 309 306 309 304 305 304 304 302 304 304 307 300 304 306 306 308 308 308
313 312 311 307 305 307 309 312 312 304 306 306 310 309 310 310 308 308 308 308 309 309 307 308 306 305 308 303 305 302 304 302 298 300 305 307 307 306 304 304 305 304 308 308 308
314 313 312 310 307 308 309 310 305 303 304 305 310 308 309 309 309 307 306 306 308 311 311 310 306 304 305 307 305 305 307 310 309 306 311 299 301 309 305 302 304 305 308 307 306
315 314 313 311 307 308 309 307 306 304 303 308 309 309 310 307 308 307 307 308 305 309 308 312 313 304 303 308 309 304 307 311 310 307 309 297 305 309 302 305 303 305 304 305 306
316 315 314 312 309 310 307 307 304 305 304 306 309 310 309 309 309 307 306 307 307 308 313 310 311 303 304 303 305 304 306 305 304 288 302 308 306 304 302 301 298 299 300 303 305
317 316 314 314 311 311 303 306 305 305 304 307 306 306 305 308 307 308 306 306 309 306 310 311 313 305 301 301 299 302 301 306 304 309 304 308 309 310 306 306 303 300 299 304 306
318 313 314 314 310 310 309 305 304 308 307 306 305 304 304 305 307 306 308 307 306 307 308 309 313 307 302 302 303 301 302 301 303 304 306 307 310 305 306 305 304 303 305 306 307
316 314 312 311 311 311 311 306 308 306 307 306 306 304 305 305 307 306 307 309 309 306 308 307 310 314 306 299 298 301 304 305 307 307 302 303 310 305 306 303 302 304 306 307 306
315 314 311 310 312 312 306 306 307 306 305 306 307 306 305 305 307 306 307 307 308 306 307 306 309 312 313 303 300 301 300 302 302 301 308 307 310 306 303 302 304 302 304 305 306
315 311 306 307 311 311 312 310 309 308 307 306 306 306 307 307 307 308 307 306 306 307 307 308 308 312 311 309 303 303 300 302 304 309 309 308 309 309 309 307 305 304 306 305 304
316 311 307 306 308 311 311 310 312 311 307 307 307 307 307 308 308 308 308 307 304 304 305 306 310 310 311 310 306 304 304 304 303 306 308 309 308 308 309 308 308 308 308 307 306
316 310 309 308 308 309 311 311 311 312 308 309 309 309 307 308 309 309 308 308 310 302 303 302 309 308 311 309 305 306 306 308 306 306 305 305 305 307 308 308 308 308 307 307 305
314 316 311 310 309 309 309 309 311 310 311 309 310 309 309 308 308 309 309 309 308 308 306 304 307 307 311 308 307 307 308 308 308 308 308 308 308 307 307 306 306 306 307 306 306
Wind_Speed
7 7 8 9 10 11 12 13 13 14 14 12 8 1 3 4 3 2 4 5 6 6 6 4 4 4 5 3 3 3 4 1 4 5 3 8 4 6 5 5 13 14 10 7 20
7 8 9 9 10 11 11 11 12 12 13 11 10 5 3 2 2 2 5 4 4 5 6 6 6 5 4 2 1 3 3 6 5 5 2 6 6 9 6 7 11 17 20 14 19
9 9 10 10 11 12 12 13 13 13 12 12 9 7 5 5 7 6 6 3 2 4 6 6 7 3 4 3 1 2 4 3 3 6 3 4 4 7 7 5 19 22 25 21 24
11 11 11 12 12 12 13 15 14 15 15 14 11 7 5 4 4 6 7 5 1 2 4 4 4 2 3 3 1 1 2 3 3 4 3 4 4 6 18 17 12 13 15 24 28
13 14 14 14 14 13 13 15 16 15 15 15 14 10 6 6 8 8 9 7 4 3 3 3 3 2 2 3 2 3 2 4 6 8 7 8 11 8 20 19 24 18 16 24 29
16 16 17 17 16 16 15 14 16 17 16 16 14 12 8 7 7 8 11 11 9 6 5 3 1 1 4 1 2 3 4 9 7 11 9 5 5 2 8 5 15 21 22 26 31
19 19 19 19 19 19 18 17 17 18 17 17 14 11 13 14 10 10 13 12 10 8 6 3 1 1 3 3 1 1 3 5 5 3 4 6 7 10 23 17 15 18 22 27 31
20 21 21 22 22 22 21 20 19 18 18 18 13 9 8 11 10 13 13 11 10 8 5 4 2 1 2 3 3 1 3 3 2 4 2 6 10 7 11 15 20 21 25 30 33
22 22 22 23 24 25 24 23 21 20 19 14 10 8 7 9 11 14 13 11 10 7 4 3 2 2 3 4 4 5 3 4 7 9 3 6 10 6 9 15 23 26 30 33 35
24 24 23 22 23 25 26 24 21 18 14 9 10 5 11 6 8 11 15 12 8 5 3 3 2 3 3 3 5 6 4 5 6 4 4 5 16 17 20 24 35 33 35 36 39
25 25 24 23 22 22 24 21 8 5 5 8 3 7 6 8 7 10 13 13 10 5 5 2 2 9 12 8 2 3 4 7 5 4 4 10 15 19 29 23 27 35 34 37 42
26 25 24 22 21 20 19 12 10 7 11 14 21 26 27 23 9 14 14 10 8 7 6 3 11 9 5 4 5 4 4 7 7 1 6 9 17 17 17 25 30 32 30 37 35
26 26 24 21 19 18 14 12 9 7 4 10 18 18 18 19 10 11 16 10 5 6 8 8 4 6 6 4 6 5 6 5 8 5 3 7 9 7 6 12 29 30 34 30 32
23 24 24 18 14 10 6 3 3 4 2 7 6 6 8 7 5 11 18 9 3 10 10 7 3 7 4 6 8 4 6 2 3 3 4 4 14 3 6 11 8 21 24 26 28
17 20 20 17 7 6 4 3 1 2 5 5 3 5 10 8 3 4 16 8 6 7 7 8 7 5 5 8 9 6 3 4 1 3 3 4 5 4 4 8 16 9 22 24 23
14 14 19 13 13 12 8 5 5 4 8 4 5 4 3 4 3 4 5 4 2 4 2 6 0 6 6 3 2 6 4 4 3 2 2 8 9 6 6 9 9 8 21 16 14
16 14 16 12 9 11 11 9 2 6 4 5 5 4 2 6 4 6 6 6 7 4 6 1 5 3 4 5 3 2 5 4 5 2 8 4 2 15 6 11 12 11 19 15 15
19 20 17 17 13 11 17 3 9 7 8 3 3 2 6 8 5 7 5 5 7 1 3 5 11 9 6 8 8 7 9 6 9 4 15 2 8 10 15 19 16 23 24 21 19
24 25 26 19 11 17 13 6 10 9 9 10 3 4 5 5 6 6 9 7 10 17 10 8 9 2 2 3 3 6 6 2 5 2 3 6 14 6 7 10 8 19 19 23 20
33 33 37 20 16 19 3 19 8 9 7 4 15 12 12 9 9 9 10 6 7 16 7 6 5 3 3 4 2 5 5 3 2 3 6 12 22 18 10 15 11 11 23 32 23
38 17 14 26 25 17 8 10 6 14 14 9 12 8 9 10 9 8 10 5 9 6 10 6 7 3 4 10 13 4 4 2 2 4 6 10 19 5 7 10 11 14 24 24 20
27 5 19 40 15 10 13 8 10 6 21 11 5 10 15 10 8 8 11 11 20 11 11 7 5 8 14 1 1 3 11 13 6 8 5 2 25 2 1 7 7 11 13 16 18
13 18 24 46 8 11 4 4 7 5 8 10 11 8 6 8 7 9 10 6 18 10 11 9 4 2 8 2 4 6 8 8 2 1 21 7 25 5 7 8 17 14 18 21 22
13 5 7 28 22 17 17 10 8 12 14 7 6 8 3 5 9 10 7 7 18 9 4 19 7 11 21 18 6 6 8 18 21 16 17 27 34 38 32 21 13 16 27 32 31
12 4 16 6 19 17 16 9 21 12 10 21 7 23 16 15 17 21 12 1 3 5 2 8 10 12 21 25 6 4 8 18 20 31 21 28 22 38 32 21 26 32 38 36 32
16 7 9 8 24 23 22 18 26 24 12 11 21 18 21 24 25 23 19 5 6 3 6 1 9 6 23 23 6 6 20 26 24 34 21 22 32 43 30 34 35 39 37 37 37
30 35 13 8 13 15 22 29 27 26 20 31 24 17 19 28 37 39 27 16 12 7 8 7 8 9 24 22 11 5 36 29 33 35 22 28 41 31 28 26 32 39 40 43 40
Wind_Direction
349 355 0 3 6 9 13 15 18 20 23 16 14 357 47 63 86 153 115 99 73 59 48 42 19 128 140 104 103 123 71 217 233 161 241 167 159 185 212 189 191 205 217 217 188
329 333 339 345 349 351 353 0 2 6 10 13 4 342 275 272 289 211 172 122 71 33 29 30 39 136 124 104 68 95 114 217 197 201 259 192 195 191 186 209 225 230 231 224 197
310 313 320 324 330 335 337 340 345 346 352 356 356 340 295 282 279 226 193 165 91 32 19 16 23 126 114 126 33 149 174 213 232 234 234 190 226 198 192 231 231 232 233 217 204
310 311 313 316 318 323 327 328 330 332 335 339 338 331 288 265 225 204 209 204 205 10 5 1 3 95 104 126 141 168 212 215 278 230 200 209 199 216 217 239 257 255 253 224 207
300 305 310 313 315 316 318 318 319 322 324 326 327 324 293 260 254 234 219 226 243 293 322 344 21 93 136 150 141 179 220 231 261 250 247 254 243 241 255 259 255 253 239 223 213
292 296 301 305 307 311 313 314 310 311 314 316 317 311 282 246 248 236 232 239 249 263 283 314 353 21 128 136 155 180 268 271 275 252 251 226 273 267 252 245 248 244 239 223 216
289 294 297 300 303 305 307 309 307 305 306 307 305 296 276 270 252 236 233 237 242 246 271 273 256 312 160 138 190 194 311 315 240 228 244 204 279 231 257 263 252 241 234 223 218
283 287 291 297 301 304 305 306 302 300 298 300 292 279 263 258 247 240 233 231 232 242 258 247 229 151 141 134 42 94 61 12 226 170 227 158 269 264 248 245 250 240 230 222 220
280 283 288 294 301 303 305 307 304 301 294 288 273 246 254 251 241 232 226 230 228 239 245 233 235 141 123 90 5 357 250 232 299 207 166 178 268 242 247 246 252 244 235 227 223
280 283 287 292 299 303 307 311 310 300 282 271 241 240 239 229 224 225 224 225 227 218 199 200 154 79 44 100 240 226 237 247 239 218 208 222 257 274 261 264 262 256 247 234 231
274 278 283 289 295 301 305 322 309 295 253 226 221 251 264 232 246 235 224 220 223 201 177 142 119 214 212 201 175 170 201 235 251 232 219 245 251 258 273 255 256 256 245 247 244
269 272 278 285 291 298 306 310 295 278 301 260 253 253 256 261 253 236 216 191 180 197 130 56 231 204 139 152 159 170 212 259 283 223 194 271 261 263 252 259 259 258 250 256 254
272 273 274 280 287 293 295 292 283 289 256 277 248 247 249 243 232 227 199 202 168 177 190 173 226 110 135 149 165 206 194 231 237 333 249 301 265 236 285 249 264 258 258 260 254
275 271 272 275 284 277 281 276 259 325 26 264 226 221 204 186 249 208 193 190 201 213 159 227 219 159 164 213 151 228 209 222 288 16 257 18 294 215 242 273 257 261 249 251 249
292 288 276 261 224 240 227 184 151 339 293 275 201 188 170 179 145 205 191 199 190 186 138 237 165 163 186 218 162 225 127 141 124 216 12 244 267 225 12 272 264 263 258 251 253
298 299 298 278 231 224 204 173 136 43 246 286 167 186 138 202 194 138 176 188 117 141 252 255 300 172 199 70 139 135 97 70 66 105 260 226 202 168 184 210 255 258 257 253 251
282 291 291 279 224 214 193 164 53 198 297 233 211 173 192 187 206 179 169 183 178 133 228 262 211 171 166 100 24 105 71 324 315 338 247 135 238 257 234 228 220 231 244 244 263
264 269 272 279 218 187 168 65 223 186 194 95 123 114 196 161 220 181 159 219 240 111 126 186 265 178 184 197 180 174 167 170 242 239 286 55 243 272 220 239 224 242 259 259 246
246 249 253 254 232 186 177 208 217 174 188 165 109 175 237 241 194 158 208 203 205 177 195 182 267 112 195 145 147 182 190 170 98 137 309 243 264 281 225 253 245 242 239 242 245
234 233 239 242 232 185 169 237 213 189 150 153 200 184 203 198 175 188 179 195 216 194 189 219 278 187 148 131 69 176 157 84 4 257 253 267 274 272 216 236 232 244 233 243 244
230 219 233 212 187 182 218 227 226 212 192 174 217 234 222 195 201 204 226 230 198 183 190 160 183 214 133 206 176 142 198 192 169 164 200 268 269 194 204 202 212 236 245 239 226
214 230 186 173 173 199 227 193 204 223 218 237 203 221 224 194 213 228 219 222 185 151 163 205 169 225 227 353 113 184 197 179 197 230 240 215 268 60 220 193 218 246 246 217 248
217 216 191 176 205 207 242 265 226 188 202 197 222 199 180 205 232 194 226 187 175 161 169 175 220 255 261 355 358 212 197 215 255 269 231 199 258 160 203 230 224 241 246 254 253
207 163 195 207 224 213 213 224 228 219 233 223 223 200 168 234 234 251 215 200 200 197 296 169 175 207 237 249 132 189 199 214 217 240 237 233 259 275 259 271 262 257 273 265 262
236 218 185 186 231 228 218 211 229 221 209 200 244 233 220 236 239 242 256 243 100 14 340 174 236 230 251 261 226 192 240 221 217 238 228 254 247 257 272 265 270 269 268 268 264
245 181 191 218 217 224 220 224 235 237 180 212 219 229 228 239 239 259 238 164 216 237 186 178 250 263 255 259 242 237 255 258 250 251 256 260 263 257 279 283 282 276 272 273 270
253 250 230 214 209 208 218 227 230 237 241 235 227 221 231 229 228 243 258 215 212 214 230 192 238 251 259 266 259 264 247 261 265 266 261 259 257 273 265 264 261 265 271 268 268